User: anonymous   Login
Location: Unspecified
(0.0000°N, 0.0000°E)
Time: 09:34:20
(UTC+02:00)
Language:

KMS 4 - Orbit

View from above orbital plane
View from above orbital plane
View from above satellite
View from above satellite

Ground track
Ground track

The orbit data is extracted from the following two-line orbital elements,

1 41332U 16009A   19287.89422456 +.00001485 +00000-0 +47966-4 0  9990
2 41332 097.3530 355.8238 0021707 229.7502 130.1842 15.33529009205935
Epoch (UTC): 14 October 2019 21:27:41
Eccentricity: 0.0021707
inclination: 97.3530°
perigee height: 450 km
apogee height: 480 km
right ascension of ascending node: 355.8238°
argument of perigee: 229.7502°
revolutions per day: 15.33529009
mean anomaly at epoch: 130.1842°
orbit number at epoch: 20593

The dashed part of the orbit path shows where the satellite is in the earth's shadow,  

DLR